PDT,Max TemperatureF,Mean TemperatureF,Min TemperatureF,Max Dew PointF,MeanDew PointF,Min DewpointF,Max Humidity, Mean Humidity, Min Humidity, Max Sea Level PressureIn, Mean Sea Level PressureIn, Min Sea Level PressureIn, Max VisibilityMiles, Mean VisibilityMiles, Min VisibilityMiles, Max Wind SpeedMPH, Mean Wind SpeedMPH, Max Gust SpeedMPH,PrecipitationIn, CloudCover, Events, WindDirDegrees
2014-4-1,53,48,44,48,45,45,100,95,77,29.96,29.90,29.85,10,8,2,17,7,28,1.13,7,,150
2014-4-2,60,51,42,48,45,41,100,82,48,30.09,30.03,29.90,10,10,5,7,1,,0.00,3,,301
2014-4-3,64,54,44,50,46,43,100,80,48,30.12,30.07,30.01,10,10,7,13,5,,0.00,2,,183
2014-4-4,57,52,46,52,48,43,100,88,63,30.05,30.01,29.98,10,10,2,10,3,,0.32,4,,189
2014-4-5,69,56,42,54,46,41,100,76,35,30.16,30.10,30.05,10,10,10,10,3,16,0.00,0,,310
2014-4-6,77,62,48,52,49,46,100,63,34,30.23,30.15,30.08,10,10,10,17,5,22,0.00,0,,330
2014-4-7,78,64,50,59,54,48,100,70,42,30.18,30.11,30.06,10,10,10,8,2,,0.00,0,,15
2014-4-8,82,68,53,61,54,50,94,67,32,30.13,30.06,29.99,10,10,10,8,2,,0.00,0,,323
2014-4-9,80,66,53,59,54,45,100,70,30,30.05,30.00,29.94,10,9,3,10,3,,0.00,0,,191
2014-4-10,80,62,44,55,50,45,100,63,30,30.02,29.94,29.86,10,9,1,9,3,,0.03,0,,324
2014-4-11,77,64,50,59,54,48,100,79,50,29.91,29.85,29.78,10,10,9,9,3,,0.00,0,,185
2014-4-12,73,60,46,59,51,46,100,79,53,29.87,29.82,29.78,10,10,6,15,7,21,0.00,0,,215
2014-4-13,80,65,50,54,44,32,100,61,17,30.03,29.96,29.87,10,10,7,17,8,24,0.00,2,,320
2014-4-14,78,60,42,59,49,41,93,67,28,30.09,30.02,29.97,10,10,10,8,2,,0.00,0,,159
2014-4-15,80,63,46,57,51,43,100,70,26,30.00,29.93,29.84,10,10,9,10,3,,0.00,0,,238
2014-4-16,82,66,50,55,47,37,94,55,23,29.90,29.84,29.77,10,10,10,18,5,24,0.00,0,,317
2014-4-17,80,65,50,57,52,43,100,62,37,29.82,29.78,29.74,10,10,10,17,4,23,0.00,0,,208
2014-4-18,80,68,55,55,46,41,77,48,28,29.89,29.84,29.79,10,10,10,15,9,22,0.00,0,,308
2014-4-19,78,63,48,54,47,36,94,64,22,30.08,29.97,29.86,10,10,10,15,6,21,0.00,0,,194
2014-4-20,84,67,50,54,46,32,100,60,16,30.13,30.07,30.00,10,10,10,14,4,20,0.00,0,,308
2014-4-21,75,62,48,50,43,27,94,56,18,30.03,29.97,29.90,10,10,3,9,4,17,0.00,0,,178
2014-4-22,68,58,48,50,37,27,94,50,21,30.08,30.00,29.92,10,10,10,13,7,18,0.00,1,,258
2014-4-23,71,58,44,46,38,32,77,49,26,30.13,30.08,30.02,10,10,10,13,4,18,0.00,0,,305
2014-4-24,73,60,48,54,49,45,93,66,38,30.07,30.01,29.93,10,10,10,15,4,22,0.00,1,,221
2014-4-25,57,52,48,55,51,46,100,91,67,29.94,29.84,29.76,10,9,3,15,6,,0.25,5,,229
2014-4-26,62,52,41,48,45,41,100,76,48,30.04,29.94,29.84,10,10,2,17,4,23,0.00,1,,213
2014-4-27,66,57,48,50,48,43,100,74,49,30.10,30.06,30.02,10,10,8,13,6,16,0.00,5,,193
2014-4-28,75,60,46,50,44,36,100,59,24,30.22,30.16,30.10,10,10,8,15,5,18,0.00,0,,346
2014-4-29,87,70,53,48,42,36,77,36,18,30.18,30.12,30.02,10,10,9,21,9,28,0.00,0,,345
2014-4-30,89,74,59,54,42,32,68,36,15,30.11,30.06,29.99,10,10,10,12,5,,0.00,0,,336